sat.trackr.live / text

‹ back to catalog

IONOSFERA-M 2

NORAD 61736 · 2024-199B

PAYLOAD ACTIVE UNKNOWN

§ Identity

Operator
Country
CIS
Launch date
2024-11-04
Launch site
VOSTO
Launch vehicle
Mass (kg)
RCS (m²)

Purposes: earth_obs

External: N2YO · Heavens-Above · Gunter

§ Orbital elements

Epoch: 2026-09-19T22:57:12.377664Z

Period
101.21 min
Inclination
98.7007°
Eccentricity
0.0001906
Mean motion
14.22772150 rev/d
Perigee alt
814.6 km
Apogee alt
817.4 km
Semi-major
7,194.1 km
B*
2.8908e-5
RAAN
134.9703°
Arg perigee
68.2001°
Mean anomaly
291.9379°
Rev number
14,430

§ Raw data

IONOSFERA-M 21 61736U 24199B   26262.95639326  .00000021  00000+0  28908-4 0  99922 61736  98.7007 134.9703 0001906  68.2001 291.9379 14.22772150144309

JSON: /api/v1/satellites/61736 · /tle

For live sub-satellite position, see the globe view (requires WebGL).

§ Visibility from observer

Set your observer location to see the next 7 days of passes ≥ 10°. The values pass through the URL so the page stays shareable.

No JS? Fill the form by hand. The geolocation button needs JavaScript.

§ Radio — SatNOGS DB

ModeDescriptionDownlinkUplink
CW MAYAK (150 MHz) 149.970 MHz
CW MAYAK (400MHz) 399.919 MHz

2 transmitters · refreshed weekly from db.satnogs.org